Regional Weather Roundup
Issued by NWS Albany, NY

Home | Current Version | Previous Version | Text Only | Print | Product List | Glossary On
Versions: 1 2 3 4 5 6 7 8 9 10 11 12 13 14 15 16 17 18 19 20 21 22 23 24 25 26 27 28 29 30 31 32 33 34 35 36 37 38 39 40 41 42 43 44 45 46 47 48 49 50
000
ASUS41 KALY 031410
RWRALY

NEW YORK STATE HOURLY WEATHER ROUNDUP
NATIONAL WEATHER SERVICE ALBANY NY
1000 AM EDT MON AUG 03 2015

NOTE: "FAIR" INDICATES FEW OR NO CLOUDS BELOW 12,000 FEET WITH NO
SIGNIFICANT WEATHER AND/OR NO OBSTRUCTIONS TO VISIBILITY.

NYZ032-033-038>043-046>054-057>066-NYZ062>081-031500-
EAST


CITY           SKY/WX    TMP DP  RH WIND       PRES   REMARKS
ALBANY         MOSUNNY   80  62  54 S12       29.75F
GLENS FALLS    SUNNY     76  63  64 S13       29.73F
POUGHKEEPSIE   SUNNY     82  61  48 S7        29.80F
NEWBURGH       SUNNY     81  64  57 W12G17    29.84
MONTGOMERY     SUNNY     80  64  58 SW10      29.82F
WHITE PLAINS   SUNNY     81  61  50 S8        29.85S
ISLIP          MOSUNNY   81  66  60 S12       29.85S
NEW YORK CITY  MOSUNNY   83  60  45 SW8       29.84S
CENTRAL PARK   SUNNY     80  61  52 VRB3      29.87S
$$

NYZ005>009-017-018-044>046-055-056-031500-
CENTRAL


CITY           SKY/WX    TMP DP  RH WIND       PRES   REMARKS
FULTON         PTSUNNY   73  62  68 W9        29.76R
SYRACUSE       PTSUNNY   73  64  73 NW9       29.75R
ROME           PTSUNNY   78  62  57 W9        29.75R
ELMIRA         PTSUNNY   78  62  57 SW12G21   29.74F
BINGHAMTON     FAIR      74  62  66 SW14      29.79F
MONTICELLO     SUNNY     75  63  64 SW8       29.85F
$$

NYZ026>034-041>043-031500-
NORTH


CITY           SKY/WX    TMP DP  RH WIND       PRES   REMARKS
WATERTOWN      CLOUDY    73  61  65 SW12      29.72R
FORT DRUM      NOT AVBL
MASSENA        LGT RAIN  69  63  81 W9        29.69R
SARANAC LAKE   CLOUDY    71  60  68 W12G20    29.73R
PLATTSBURGH    PTSUNNY   78  64  61 S7        29.68R
$$

NYZ001>004-010>016-019>021-031500-
WEST


CITY           SKY/WX    TMP DP  RH WIND       PRES   REMARKS
NIAGARA FALLS  LGT RAIN  69  61  75 W16       29.74R
BUFFALO        PTSUNNY   72  61  68 W16       29.75R
DUNKIRK        CLOUDY    72  58  61 SW13      29.78R
JAMESTOWN      CLOUDY    66  55  68 SW10      29.84R
WELLSVILLE     CLOUDY    70  57  63 W14       29.86R
ROCHESTER      CLOUDY    72  59  63 W7        29.75S
PENN YAN       PTSUNNY   76  60  57 NW10G17   29.78R
$$

             KEY
       WCI = WIND CHILL INDEX
       VSB = VISIBILITY
       HX  = HEAT INDEX
$$



USA.gov is the U.S. government's official web portal to all federal, state and local government web resources and services.